Regional Weather Roundup
Issued by NWS Charleston, SC

Current Version | Previous Version | Graphics & Text | Print | Product List | Glossary On
Versions: 1 2 3 4 5 6 7 8 9 10 11 12 13 14 15 16 17 18 19 20 21 22 23 24 25 26 27 28 29 30 31 32 33 34 35 36 37 38 39 40 41 42 43 44 45 46 47 48 49 50
000
ASUS42 KCHS 241613
RWRCHS

REGIONAL WEATHER ROUNDUP
NATIONAL WEATHER SERVICE CHARLESTON SC
1200 PM EDT WED AUG 24 2016

NOTE: "FAIR" INDICATES FEW OR NO CLOUDS BELOW 12,000 FEET WITH NO
SIGNIFICANT WEATHER AND/OR OBSTRUCTIONS TO VISIBILITY.

NOT ALL STATIONS ARE QUALITY CONTROLLED. USE DATA WITH CAUTION...
ESPECIALLY DEWPOINT OBSERVATIONS.

SCZ027-030-031-034>040-042>050-241700-
...SOUTHEAST SOUTH CAROLINA...

CITY           SKY/WX    TMP DP  RH WIND       PRES   REMARKS
N CHARLESTON   MOSUNNY   89  67  47 E9        30.25F HX  92
WATERFRONT PRK   N/A     85  70  60 E7        30.24S
MOUNT PLEASANT FAIR      82  70  65 CALM      30.25F
JOHNS ISLAND   FAIR      86  68  54 NE13G18   30.25F
PINOPOLIS        N/A     82  70  65 NE8       30.21S
MONCKS CORNER  FAIR      84  64  51 NE7       30.26F
SUMMERVILLE    FAIR      86  68  54 N7        30.27F
BEAUFORT MCAS  MOSUNNY   88  69  53 NE9       30.25S HX  92
BEAUFORT ARPT  FAIR      86  70  58 NE12      30.24S HX  90
HILTON HEAD IS MOSUNNY   91  72  52 E8        30.25S HX  98
WALTERBORO     PTSUNNY   88  68  51 N6        30.27F HX  91
ALLENDALE      FAIR      88  66  48 VRB5      30.25F HX  90

...SOUTHERN MIDLANDS AND PEE DEE...

CITY           SKY/WX    TMP DP  RH WIND       PRES   REMARKS
GEORGETOWN     FAIR      84  63  48 NE6       30.28S
KINGSTREE      FAIR      86  61  42 E5        30.27F
ORANGEBURG     SUNNY     86  66  51 NE10      30.27F
BARNWELL       NOT AVBL
AIKEN          PTSUNNY   82  66  57 E5        30.32F
MANNING        FAIR      82  64  54 NE5       30.28S
COLUMBIA       MOSUNNY   88  64  44 SE10      30.27F
SUMTER         PTSUNNY   87  67  51 E9        30.26F HX  90
FLORENCE       SUNNY     87  63  44 VRB5      30.28F
MYRTLE BEACH   MOSUNNY   88  59  37 NE12      30.29S
N MYRTLE BEACH SUNNY     85  62  46 NE12      30.27S

$$

GAZ063-065-086>088-099>101-113>116-118-119-134>141-150-241700-
...SOUTHEAST GEORGIA...

CITY           SKY/WX    TMP DP  RH WIND       PRES   REMARKS
SAVANNAH ARPT  MOSUNNY   88  68  51 NE9G20    30.24F HX  91
HUNTER AAF     MOSUNNY   87  75  67 NE10G16   30.21F HX  97
FORT STEWART   MOSUNNY   86  69  57 NE6       30.22S HX  90
STATESBORO     SUNNY     87  71  57 E6        30.26S HX  93
SYLVANIA       MOSUNNY  N/A N/A N/A E7        30.27S
CLAXTON        FAIR      88  72  58 NE6       30.24F HAZE    HX  94

...CSRA...CENTRAL AND FAR SOUTHEAST GEORGIA...

CITY           SKY/WX    TMP DP  RH WIND       PRES   REMARKS
THOMSON        CLOUDY    84  73  69 MISG      30.32F HX  90
AUGUSTA-BUSH   MOSUNNY   87  66  49 E7        30.26F
AUGUSTA-DANIEL MOSUNNY   86  66  51 S7        30.28F
SWAINSBORO     FAIR      88  66  48 E10       30.26F HX  90
VIDALIA        PTSUNNY   90  73  58 SE6       30.25F HX  98
EASTMAN        FAIR      87  62  43 NE6       30.28S
HAZLEHURST     FAIR      88  69  53 CALM      30.24F HX  92
ALMA           SUNNY     87  70  56 CALM      30.23F HX  92
WAYCROSS         N/A     91  73  54 E7        30.23S HX  98
JESUP          PTSUNNY   88  77  70 NE5       30.24S HX 100
BAXLEY         FAIR      86  77  74 E5        30.24F HX  97
BRUNSWICK      SUNNY     90  73  58 NE15      30.23S HX  98
SAINT SIMONS   SUNNY     88  70  55 E14G20    30.23R HX  93

$$

SCZ027-028-034-036>038-045-046-048>050-GAZ119-141-241700-
...LAKE AND SUPPLEMENTAL COASTAL OBSERVATIONS...

STATION/POSITION TIME  TEMP    WIND        PRES    WAVE   SWELL
                       AIR SEA DIR/SP/G            HT/PER HT/PER/DIR
                 (UTC) (F)     (DEG/KT/KT) (MB)    (FT/S) (FT/S/D)
WINYAH BAY       NOT AVBL
LAKE MURRAY      1500   83      CALM  /  2 1025.1S
ACE BASIN NERRS  NOT AVBL
FORT PULASKI     1500   83 86   30/ 10/ 13 1024.4S
SAPELO ISLAND    1500   88      50/ 11     1023.0S

$$

ANZ835-935-AMZ111-154-330-350-352-354-370-450-454-472-241700-
...C-MAN AND BUOY OBSERVATIONS...

STATION/POSITION TIME  TEMP    WIND        PRES    WAVE   SWELL
                       AIR SEA DIR/SP/G            HT/PER HT/PER/DIR
                 (UTC) (F)     (DEG/KT/KT) (MB)    (FT/S) (FT/S/D)
BUOY 41004       1550   83 84   50/ 17/ 19 1023.2S   4/ 7   2/ 90/ 7
BUOY 41008       1550   83 85   50/ 12/ 16 1023.1F   3/ 5   2/110/ 7
FOLLY BEACH CMAN 1600   83      60/ 15/ 18 1024.6F
CAPERS NEARSHORE 1508   82 84   60/ 14/ 17 1024.3R
FRIPP NEARSHORE  1508   82 86   50/ 16/ 21 1023.2S


STATION/POSITION TIME  TEMP    WIND        PRES    WAVE   SWELL
                       AIR SEA DIR/SP/G            HT/PER HT/PER/DIR
                 (UTC) (F)     (DEG/KT/KT) (MB)    (FT/S) (FT/S/D)
5E ST. MARYS GA  1501      84                N/A     4/ 6
FRYING PAN BUOY  1500   80 85   20/ 16/ 19 1024.2R
BUOY 41025       1550   82 85   90/ 10/ 14 1023.9F   3/ 6   2/ 10/ 6
CAPE LOOKOUT NC  1600   81      10/ 13/ 15 1024.0F
BUOY 41002       1550   82 85   50/ 16/ 17 1021.4F   5/11   2/100/11
BUOY 41010       NOT AVBL
ST AUGUSTINE FL  1600   83 83   40/ 14/ 16 1023.2R


$$




USA.gov is the U.S. government's official web portal to all federal, state and local government web resources and services.